Location: Cedar Brake
(32.2526°N, 97.8459°W)
Time: 08:49:33
(UTC+00:00)

ADEOS Rocket - Pass Details

Date: 22 April 2026
Orbit: 859 x 1304 km, 98.8° (Epoch: 15 May)

Event Time Altitude Azimuth Distance (km) Brightness Sun altitude
Rises 09:26:22 0° 2° (N) 4,228 6.9 -28.7°
Reaches altitude 10° 09:29:14 10° 355° (N) 3,288 6.1 -28.2°
Maximum altitude 09:36:06 37° 292° (WNW) 1,906 4.2 -27.1°
Enters shadow 09:36:34 37° 284° (WNW) 1,915 4.2 -27.0°
